Location: Unspecified
(0.0000°N, 0.0000°E)
Time: 10:56:53
(UTC+00:00)

Vanguard 3 - All Passes

Search period start: 23 November 2014 00:00
Search period end: 03 December 2014 00:00
Orbit: 508 x 3278 km, 33.4° (Epoch: 23 November)

Date Brightness Start Highest point End Pass type
(mag) Time Alt. Az. Time Alt. Az. Time Alt. Az.
23 Nov - 00:00:00 44° SSW 23:59:45 45° SSW 00:06:27 10° SSE night (unlit)
23 Nov - 08:52:37 10° S 08:56:46 24° SE 09:02:48 10° E daylight
23 Nov - 11:02:16 10° WSW 11:08:53 63° NNW 11:21:00 10° NE daylight
23 Nov - 13:16:40 10° WNW 13:25:03 25° NNW 13:37:15 10° NNE daylight
23 Nov - 15:36:32 10° NW 15:45:50 17° N 15:56:34 10° NNE daylight
23 Nov - 17:55:16 10° NNW 18:09:12 23° NNE 18:22:09 10° ENE visible
23 Nov - 20:11:29 10° NW 20:29:37 45° NNE 20:42:09 10° E visible
23 Nov - 22:29:05 10° WNW 22:45:57 77° SW 22:55:26 10° SE visible
24 Nov - 00:51:41 10° W 00:58:55 19° SW 01:04:07 10° S night (unlit)
24 Nov - 09:50:59 10° SW 09:56:23 73° SE 10:06:05 10° ENE daylight
24 Nov - 12:03:17 10° W 12:10:32 33° NNW 12:22:16 10° NE daylight
24 Nov - 14:20:58 10° NW 14:29:03 17° N 14:39:16 10° NNE daylight
24 Nov - 16:40:33 10° NNW 16:51:47 18° N 17:03:39 10° NE daylight
24 Nov - 18:56:44 10° NNW 19:13:48 34° NNE 19:27:37 10° E visible
24 Nov - 21:13:11 10° NW 21:32:02 74° NE 21:43:32 10° ESE visible
24 Nov - 23:33:08 10° WNW 23:46:24 39° SW 23:54:25 10° SSE visible
25 Nov - 08:40:31 10° SSW 08:44:40 30° SE 08:50:54 10° ENE daylight
25 Nov - 10:50:55 10° WSW 10:57:00 47° NNW 11:07:41 10° NE daylight
25 Nov - 13:06:11 10° WNW 13:13:24 20° NNW 13:23:21 10° NNE daylight
25 Nov - 15:25:47 10° NNW 15:34:21 16° N 15:44:12 10° NE daylight
25 Nov - 17:42:25 10° NNW 17:57:12 25° NNE 18:11:11 10° ENE visible
25 Nov - 19:57:59 10° NW 20:17:08 53° NNE 20:30:36 10° ESE visible
25 Nov - 22:15:57 10° WNW 22:33:20 66° SW 22:43:29 10° SE visible
26 Nov - 00:40:11 10° WSW 00:46:44 16° SW 00:51:42 10° S night (unlit)
26 Nov - 09:39:21 10° WSW 09:44:24 84° NW 09:53:18 10° NE daylight
26 Nov - 11:52:28 10° WNW 11:58:51 25° NNW 12:08:30 10° NNE daylight
26 Nov - 14:10:53 10° NNW 14:17:34 15° N 14:25:42 10° NNE daylight
26 Nov - 16:28:27 10° NNW 16:40:04 19° NNE 16:52:32 10° NE daylight
26 Nov - 18:43:26 10° NW 19:01:23 39° NNE 19:16:15 10° E visible
26 Nov - 20:59:48 10° NW 21:19:21 85° NE 21:31:40 10° SE visible
26 Nov - 23:20:40 10° W 23:33:53 34° SW 23:42:16 10° SSE visible
27 Nov - 08:28:33 10° SSW 08:32:38 41° SE 08:38:52 10° ENE daylight
27 Nov - 10:39:46 10° W 10:45:16 34° NNW 10:54:18 10° NE daylight
27 Nov - 12:56:08 10° NW 13:01:52 16° N 13:09:16 10° NNE daylight
27 Nov - 15:14:45 10° NNW 15:22:51 15° N 15:32:11 10° NE daylight
27 Nov - 17:29:30 10° NNW 17:44:59 29° NNE 18:00:01 10° ENE daylight
27 Nov - 19:44:35 10° NW 20:04:26 62° NNE 20:18:49 10° ESE visible
27 Nov - 22:02:57 10° WNW 22:20:36 57° SW 22:31:25 10° SE visible
28 Nov - 00:28:59 10° WSW 00:34:37 14° SW 00:39:07 10° S night (unlit)
28 Nov - 07:19:06 10° S 07:21:09 13° SE 07:23:29 10° ESE daylight
28 Nov - 09:27:53 10° WSW 09:32:34 59° NNW 09:40:28 10° NE daylight
28 Nov - 11:42:03 10° WNW 11:47:17 18° NNW 11:54:33 10° NNE daylight
28 Nov - 14:01:02 10° NNW 14:06:10 13° N 14:12:09 10° NNE daylight
28 Nov - 16:16:08 10° NNW 16:28:11 21° NNE 16:41:25 10° ENE daylight
28 Nov - 18:30:12 10° NW 18:48:45 45° NNE 19:04:38 10° E visible
28 Nov - 20:46:33 10° NW 21:06:30 84° SW 21:19:38 10° SE visible
28 Nov - 23:08:23 10° W 23:21:22 29° SW 23:30:02 10° SSE visible
29 Nov - 08:16:43 10° SW 08:20:42 59° SE 08:26:42 10° ENE daylight
29 Nov - 10:28:53 10° WNW 10:33:39 24° NNW 10:40:48 10° NNE daylight
29 Nov - 12:46:50 10° NNW 12:50:27 12° N 12:54:41 10° NNE daylight
29 Nov - 15:03:21 10° NNW 15:11:18 15° NNE 15:20:32 10° NE daylight
29 Nov - 17:16:34 10° NNW 17:32:35 33° NNE 17:48:37 10° E daylight
29 Nov - 19:31:18 10° NW 19:51:32 71° NE 20:06:51 10° ESE visible
29 Nov - 21:50:07 10° WNW 22:07:47 50° SW 22:19:13 10° SSE visible
30 Nov - 00:18:06 10° WSW 00:22:35 12° SW 00:26:22 10° SSW visible
30 Nov - 07:06:27 10° S 07:09:13 19° SE 07:12:28 10° E daylight
30 Nov - 09:16:34 10° W 09:20:51 39° NNW 09:27:32 10° NE daylight
30 Nov - 11:32:18 10° NW 11:35:49 13° NNW 11:40:08 10° NNE daylight
30 Nov - 13:51:24 10° N 13:54:48 11° N 13:58:34 10° NNE daylight
30 Nov - 16:03:40 10° NNW 16:16:08 23° NNE 16:30:12 10° ENE daylight
30 Nov - 18:17:03 10° NW 18:35:55 52° NNE 18:52:47 10° ESE visible
30 Nov - 20:33:28 10° WNW 20:53:31 74° SW 21:07:27 10° SE visible
30 Nov - 22:56:18 10° W 23:08:54 26° SW 23:17:43 10° SSE visible
01 Dec - 08:04:59 10° SW 08:08:51 90° NNW 08:14:25 10° NE daylight
01 Dec - 10:18:26 10° WNW 10:22:08 17° NNW 10:27:02 10° NNE daylight
01 Dec - 14:51:35 10° NNW 14:59:39 16° NNE 15:09:09 10° NE daylight
01 Dec - 17:03:40 10° NNW 17:19:58 37° NNE 17:36:58 10° E daylight
01 Dec - 19:18:10 10° NW 19:38:29 81° NE 19:54:41 10° ESE visible
01 Dec - 21:37:28 10° WNW 21:54:58 43° SW 22:06:55 10° SSE visible
02 Dec - 00:07:41 10° SW 00:10:39 11° SSW 00:13:19 10° SSW visible
02 Dec - 06:54:07 10° SSW 06:57:20 28° SE 07:01:04 10° E daylight
02 Dec - 09:05:31 10° W 09:09:14 26° NNW 09:14:29 10° NNE daylight
02 Dec - 13:42:22 10° N 13:43:26 10° NNE 13:44:31 10° NNE daylight
02 Dec - 15:51:06 10° NNW 16:03:53 26° NNE 16:18:49 10° ENE daylight
02 Dec - 18:04:00 10° NW 18:22:55 60° NE 18:40:42 10° ESE visible
02 Dec - 20:20:32 10° WNW 20:40:27 65° SW 20:55:07 10° SE visible
02 Dec - 22:44:25 10° W 22:56:30 23° SW 23:05:20 10° SSE visible
